This demonstration page uses our WeatherBlox Daily Observations layout. Learn more.

Left ArrowRight Arrow

Hourly Observations for February 23, 2017

Temp ( °F °C ) Dew Point ( °F °C ) Humidity (%) Winds ( mph kmh ) Pressure ( in mb ) Visibility ( mi km ) Precip ( " mm )
12:51 am 00:51 Clear 54 12.2 41 5 62 62 E 3 6 29.69 1006 10 16 N/A
1:51 am 01:51 Clear 51 10.6 41 5 69 69 NNE 5 7 29.67 1005 10 16 N/A
2:51 am 02:51 Clear 60 15.6 29 -1.7 31 31 NW 18 30 29.63 1004 10 16 N/A
3:51 am 03:51 Clear 57 13.9 35 1.7 44 44 NW 23 37 29.64 1004 10 16 N/A
4:51 am 04:51 Clear 55 12.8 33 0.6 44 44 NW 20 31 29.65 1004 10 16 N/A
5:51 am 05:51 Clear 54 12.2 33 0.6 45 45 NNW 15 24 29.70 1006 10 16 N/A
6:51 am 06:51 Clear 50 10 31 -0.6 48 48 WNW 16 26 29.74 1007 10 16 N/A
7:51 am 07:51 Sunny 51 10.6 31 -0.6 46 46 WNW 14 22 29.75 1008 10 16 N/A
8:51 am 08:51 Sunny 54 12.2 23 -5 30 30 WNW 22 35 29.77 1008 10 16 N/A
9:51 am 09:51 Sunny 56 13.3 19 -7.2 24 24 NW 16 26 29.78 1009 10 16 N/A
10:51 am 10:51 Sunny 58 14.4 19 -7.2 22 22 WNW 13 20 29.79 1009 10 16 N/A
11:51 am 11:51 Sunny 60 15.6 18 -7.8 19 19 NW 15 24 29.78 1008 10 16 N/A
12:51 pm 12:51 Sunny 63 17.2 16 -8.9 16 16 WNW 23 37 29.73 1007 10 16 N/A
1:51 pm 13:51 Sunny 64 17.8 13 -10.6 13 13 NW 25 41 29.70 1006 10 16 N/A
2:51 pm 14:51 Sunny 63 17.2 10 -12.2 12 12 NW 26 43 29.68 1005 10 16 N/A
3:51 pm 15:51 Sunny 62 16.7 7 -13.9 11 11 NW 28 44 29.69 1005 10 16 N/A
4:51 pm 16:51 Sunny 59 15 10 -12.2 14 14 NW 23 37 29.70 1006 10 16 N/A
5:51 pm 17:51 Sunny 56 13.3 10 -12.2 16 16 NW 26 43 29.74 1007 10 16 N/A
6:51 pm 18:51 Clear 52 11.1 11 -11.7 19 19 NW 22 35 29.78 1008 10 16 N/A
7:51 pm 19:51 Clear 50 10 12 -11.1 22 22 NW 17 28 29.81 1009 10 16 N/A
8:51 pm 20:51 Clear 49 9.4 14 -10 25 25 NW 5 7 29.83 1010 10 16 N/A
9:51 pm 21:51 Clear 46 7.8 14 -10 27 27 WNW 12 19 29.84 1011 10 16 N/A
10:51 pm 22:51 Clear 45 7.2 15 -9.4 30 30 WNW 10 17 29.86 1011 10 16 N/A
11:51 pm 23:51 Clear 43 6.1 15 -9.4 32 32 WNW 13 20 29.88 1012 10 16 N/A

Powered by AerisWeather